Zurück zum Katalog

COSMOS 1375 DEB

AktivLEO
NORAD 17104·DEBRIS·🇷🇺 Russia

Gestartet Jun 6, 1982 von Plesetsk Cosmodrome

Loading…

Nächste Überflüge (nächste 24 Stunden)

TLE

AktuellSource: Space-Track

Epoche: Sep 14, 2026, 08:16 UTC

1 17104U 82055AF  26257.34451149  .00000146  00000-0  23201-3 0  9998
2 17104  65.8331 290.9463 0045163 267.3760 104.9464 13.76041106 50411

Verfolge COSMOS 1375 DEB in Echtzeit mit AllMySat

Download on the App Store